QPF
0.00 0.00 0.00 0.00 0.00 0.00 0.00 0.00 0.00 0.00 0.00 0.00 0.00 0.00 0.00 0.00 0.00 0.00 0.00 0.00 0.00 0.00 0.00 0.00 0.00 0.00 0.00 0.00 0.00 0.00 0.00 0.00 0.00 0.00 0.01 0.06 0.10 0.01 0.00 0.00 0.00 0.00 0.00 0.00 0.00
0.00 0.00 0.00 0.00 0.00 0.00 0.00 0.00 0.00 0.00 0.00 0.00 0.00 0.00 0.00 0.00 0.00 0.00 0.00 0.00 0.00 0.00 0.00 0.00 0.00 0.00 0.00 0.00 0.00 0.00 0.00 0.00 0.00 0.00 0.02 0.03 0.06 0.03 0.00 0.00 0.00 0.00 0.00 0.00 0.00
0.00 0.00 0.00 0.00 0.00 0.00 0.00 0.00 0.00 0.00 0.00 0.00 0.00 0.00 0.00 0.00 0.00 0.00 0.00 0.00 0.00 0.00 0.00 0.00 0.00 0.00 0.00 0.00 0.00 0.01 0.04 0.02 0.00 0.01 0.01 0.01 0.04 0.09 0.00 0.00 0.00 0.00 0.00 0.00 0.00
0.00 0.00 0.00 0.00 0.00 0.00 0.00 0.00 0.00 0.00 0.00 0.00 0.00 0.00 0.00 0.00 0.00 0.00 0.00 0.00 0.00 0.00 0.00 0.00 0.00 0.00 0.00 0.00 0.00 0.01 0.07 0.01 0.00 0.01 0.02 0.01 0.04 0.08 0.00 0.01 0.00 0.00 0.00 0.00 0.00
0.00 0.00 0.00 0.00 0.00 0.00 0.00 0.00 0.00 0.00 0.00 0.00 0.00 0.00 0.00 0.00 0.00 0.00 0.00 0.00 0.00 0.00 0.00 0.00 0.00 0.00 0.00 0.00 0.00 0.00 0.01 0.01 0.00 0.00 0.00 0.00 0.02 0.09 0.02 0.00 0.00 0.00 0.00 0.00 0.00
0.00 0.00 0.00 0.00 0.00 0.00 0.00 0.00 0.00 0.00 0.00 0.00 0.00 0.00 0.00 0.00 0.00 0.00 0.00 0.00 0.00 0.00 0.00 0.00 0.00 0.00 0.00 0.00 0.00 0.00 0.00 0.01 0.00 0.00 0.00 0.01 0.03 0.08 0.02 0.00 0.01 0.00 0.00 0.00 0.00
0.00 0.00 0.00 0.00 0.00 0.00 0.00 0.00 0.00 0.00 0.00 0.00 0.00 0.00 0.00 0.00 0.00 0.00 0.00 0.00 0.00 0.00 0.00 0.00 0.00 0.00 0.00 0.00 0.00 0.00 0.03 0.06 0.03 0.00 0.00 0.02 0.05 0.04 0.02 0.02 0.00 0.00 0.00 0.00 0.00
0.00 0.00 0.00 0.00 0.00 0.00 0.00 0.00 0.00 0.00 0.00 0.00 0.00 0.00 0.00 0.00 0.00 0.00 0.00 0.00 0.00 0.00 0.00 0.00 0.00 0.00 0.00 0.00 0.01 0.02 0.05 0.09 0.03 0.02 0.01 0.00 0.00 0.01 0.04 0.00 0.02 0.02 0.00 0.00 0.00
0.00 0.00 0.00 0.00 0.00 0.00 0.00 0.00 0.00 0.00 0.00 0.00 0.00 0.00 0.00 0.00 0.00 0.00 0.00 0.00 0.00 0.00 0.00 0.00 0.00 0.00 0.00 0.00 0.03 0.09 0.03 0.01 0.01 0.01 0.00 0.00 0.00 0.00 0.06 0.02 0.03 0.00 0.01 0.03 0.00
0.00 0.00 0.00 0.00 0.00 0.00 0.00 0.00 0.00 0.00 0.00 0.00 0.00 0.00 0.00 0.00 0.00 0.00 0.00 0.00 0.00 0.00 0.00 0.00 0.00 0.00 0.00 0.00 0.00 0.00 0.00 0.00 0.00 0.00 0.00 0.01 0.01 0.00 0.01 0.01 0.03 0.00 0.01 0.01 0.00
0.00 0.00 0.00 0.00 0.00 0.00 0.00 0.00 0.00 0.00 0.00 0.00 0.00 0.00 0.00 0.00 0.00 0.00 0.00 0.00 0.00 0.00 0.00 0.00 0.00 0.00 0.00 0.00 0.00 0.00 0.00 0.00 0.00 0.00 0.00 0.00 0.00 0.00 0.00 0.00 0.00 0.00 0.00 0.01 0.01
0.00 0.00 0.00 0.00 0.00 0.00 0.00 0.00 0.00 0.00 0.00 0.00 0.00 0.00 0.00 0.00 0.00 0.00 0.00 0.00 0.00 0.00 0.00 0.00 0.00 0.00 0.00 0.00 0.00 0.00 0.00 0.00 0.00 0.00 0.00 0.00 0.00 0.02 0.00 0.00 0.00 0.00 0.00 0.00 0.00
0.00 0.00 0.00 0.00 0.00 0.00 0.00 0.00 0.00 0.00 0.00 0.00 0.00 0.00 0.00 0.00 0.00 0.00 0.00 0.00 0.00 0.00 0.00 0.00 0.00 0.00 0.00 0.00 0.00 0.00 0.00 0.00 0.00 0.00 0.00 0.01 0.01 0.03 0.06 0.03 0.00 0.00 0.00 0.00 0.02
0.00 0.00 0.00 0.00 0.00 0.00 0.00 0.00 0.00 0.00 0.00 0.00 0.00 0.00 0.00 0.00 0.00 0.00 0.00 0.00 0.00 0.00 0.00 0.00 0.00 0.00 0.00 0.00 0.00 0.00 0.00 0.00 0.00 0.00 0.00 0.00 0.00 0.00 0.01 0.06 0.04 0.01 0.00 0.01 0.02
0.00 0.00 0.00 0.00 0.00 0.00 0.00 0.00 0.00 0.00 0.00 0.00 0.00 0.00 0.00 0.00 0.00 0.00 0.00 0.00 0.00 0.00 0.00 0.00 0.00 0.00 0.00 0.00 0.00 0.00 0.00 0.00 0.00 0.00 0.00 0.00 0.00 0.00 0.01 0.08 0.07 0.01 0.00 0.02 0.04
0.00 0.00 0.00 0.00 0.00 0.00 0.00 0.00 0.00 0.00 0.00 0.00 0.00 0.00 0.00 0.00 0.00 0.00 0.00 0.00 0.00 0.00 0.00 0.00 0.00 0.00 0.00 0.00 0.00 0.00 0.00 0.00 0.00 0.00 0.00 0.00 0.00 0.00 0.01 0.03 0.09 0.06 0.04 0.01 0.02
0.00 0.00 0.00 0.00 0.00 0.00 0.00 0.00 0.00 0.00 0.00 0.00 0.00 0.00 0.00 0.00 0.00 0.00 0.00 0.00 0.00 0.00 0.00 0.00 0.00 0.00 0.00 0.00 0.00 0.00 0.00 0.00 0.00 0.00 0.00 0.00 0.00 0.00 0.01 0.02 0.01 0.03 0.06 0.03 0.01
0.00 0.00 0.00 0.00 0.00 0.00 0.00 0.00 0.00 0.00 0.00 0.00 0.00 0.00 0.00 0.00 0.00 0.00 0.00 0.00 0.00 0.00 0.00 0.00 0.00 0.00 0.00 0.00 0.00 0.00 0.00 0.00 0.00 0.00 0.00 0.00 0.00 0.00 0.00 0.00 0.00 0.00 0.05 0.10 0.03
0.00 0.00 0.00 0.00 0.00 0.00 0.00 0.00 0.00 0.00 0.00 0.00 0.00 0.00 0.00 0.00 0.00 0.00 0.00 0.00 0.00 0.00 0.00 0.00 0.00 0.00 0.00 0.00 0.00 0.00 0.00 0.00 0.00 0.00 0.00 0.00 0.00 0.00 0.00 0.00 0.00 0.00 0.02 0.06 0.04
0.00 0.00 0.00 0.00 0.00 0.00 0.00 0.00 0.00 0.00 0.00 0.00 0.00 0.00 0.00 0.00 0.00 0.00 0.00 0.00 0.00 0.00 0.00 0.00 0.00 0.00 0.00 0.00 0.00 0.00 0.00 0.00 0.00 0.00 0.00 0.00 0.00 0.00 0.00 0.00 0.00 0.00 0.03 0.06 0.07
0.00 0.00 0.00 0.00 0.00 0.00 0.00 0.00 0.00 0.00 0.00 0.00 0.00 0.00 0.00 0.00 0.00 0.00 0.00 0.00 0.00 0.00 0.00 0.00 0.00 0.00 0.00 0.00 0.00 0.00 0.00 0.00 0.00 0.00 0.00 0.00 0.00 0.00 0.00 0.00 0.00 0.00 0.00 0.01 0.04
0.00 0.00 0.00 0.00 0.00 0.00 0.00 0.00 0.00 0.00 0.00 0.00 0.00 0.00 0.00 0.00 0.00 0.00 0.00 0.00 0.00 0.00 0.00 0.00 0.00 0.00 0.00 0.00 0.00 0.00 0.00 0.00 0.00 0.00 0.00 0.00 0.00 0.00 0.00 0.00 0.00 0.00 0.00 0.00 0.00
0.00 0.00 0.00 0.00 0.00 0.00 0.00 0.00 0.00 0.00 0.00 0.00 0.00 0.00 0.00 0.00 0.00 0.00 0.00 0.00 0.00 0.00 0.00 0.00 0.00 0.00 0.00 0.00 0.00 0.00 0.00 0.00 0.00 0.00 0.00 0.00 0.00 0.00 0.00 0.00 0.00 0.00 0.00 0.00 0.01
0.00 0.00 0.00 0.00 0.00 0.00 0.00 0.00 0.00 0.00 0.00 0.00 0.00 0.00 0.00 0.00 0.00 0.00 0.00 0.00 0.00 0.00 0.00 0.00 0.00 0.00 0.00 0.00 0.00 0.00 0.00 0.00 0.00 0.00 0.00 0.00 0.00 0.00 0.00 0.00 0.00 0.00 0.00 0.00 0.00
0.00 0.00 0.00 0.00 0.00 0.00 0.00 0.00 0.00 0.00 0.00 0.00 0.00 0.00 0.00 0.00 0.00 0.00 0.00 0.00 0.00 0.00 0.00 0.00 0.00 0.00 0.00 0.00 0.00 0.00 0.00 0.00 0.00 0.00 0.00 0.00 0.00 0.00 0.00 0.00 0.00 0.00 0.00 0.01 0.00
0.00 0.00 0.00 0.00 0.00 0.00 0.00 0.00 0.00 0.00 0.00 0.00 0.00 0.00 0.00 0.00 0.00 0.00 0.00 0.00 0.00 0.00 0.00 0.00 0.00 0.00 0.00 0.00 0.00 0.00 0.00 0.00 0.00 0.00 0.00 0.00 0.00 0.00 0.00 0.00 0.01 0.00 0.04 0.03 0.02
0.00 0.00 0.00 0.00 0.00 0.00 0.00 0.00 0.00 0.00 0.00 0.00 0.00 0.00 0.00 0.00 0.00 0.00 0.00 0.00 0.00 0.00 0.00 0.00 0.00 0.00 0.00 0.00 0.00 0.00 0.00 0.00 0.00 0.00 0.00 0.00 0.00 0.00 0.00 0.01 0.03 0.02 0.07 0.03 0.07
MSLP
1016.78 1016.50 1016.18 1015.95 1015.65 1015.39 1015.17 1014.92 1014.63 1014.38 1014.05 1013.71 1013.37 1013.07 1012.81 1012.59 1012.06 1011.91 1010.74 1008.66 1008.51 1008.47 1008.67 1008.97 1008.72 1008.61 1009.15 1010.18 1010.65 1011.12 1011.86 1012.63 1012.97 1013.13 1013.15 1012.42 1011.63 1010.74 1009.97 1010.21 1010.64 1010.97 1011.75 1012.91 1014.26
1016.82 1016.51 1016.18 1015.86 1015.57 1015.32 1015.07 1014.81 1014.49 1014.23 1013.91 1013.59 1013.24 1012.98 1012.70 1012.52 1012.16 1010.91 1008.07 1008.03 1008.21 1008.39 1008.65 1008.75 1008.78 1008.83 1009.65 1010.27 1010.73 1011.01 1011.87 1011.90 1011.92 1012.20 1012.41 1012.42 1012.05 1011.52 1010.79 1010.59 1011.25 1011.64 1012.62 1013.66 1014.46
1016.88 1016.53 1016.18 1015.80 1015.47 1015.20 1014.95 1014.64 1014.32 1014.08 1013.79 1013.41 1013.12 1012.74 1012.54 1012.43 1011.63 1008.54 1007.20 1007.78 1008.07 1008.30 1008.47 1008.58 1008.78 1008.99 1009.79 1010.32 1010.65 1010.82 1011.07 1011.23 1011.49 1011.87 1012.20 1012.51 1012.45 1012.07 1010.86 1010.91 1011.15 1011.69 1013.00 1013.97 1014.51
1016.87 1016.45 1016.07 1015.74 1015.39 1015.07 1014.78 1014.47 1014.11 1013.83 1013.63 1013.29 1012.98 1012.63 1012.40 1012.23 1010.21 1007.40 1006.98 1007.62 1008.08 1008.27 1008.47 1008.67 1009.14 1009.41 1009.74 1010.33 1010.41 1010.66 1010.68 1010.95 1011.39 1011.60 1011.91 1012.12 1012.44 1012.31 1011.08 1010.52 1011.01 1011.41 1012.28 1013.52 1014.57
1016.83 1016.43 1016.01 1015.60 1015.27 1014.92 1014.57 1014.26 1013.95 1013.66 1013.40 1013.12 1012.84 1012.54 1012.25 1011.12 1008.60 1007.23 1007.29 1007.78 1008.31 1008.46 1008.43 1008.68 1008.78 1008.88 1009.34 1009.86 1010.21 1010.62 1010.63 1010.50 1011.19 1011.83 1012.04 1012.14 1012.51 1012.25 1010.99 1010.73 1011.51 1012.11 1013.17 1013.79 1014.51
1016.76 1016.31 1015.84 1015.40 1014.96 1014.57 1014.24 1013.95 1013.66 1013.39 1013.09 1012.88 1012.66 1012.53 1012.04 1009.64 1006.86 1007.21 1007.60 1008.16 1008.28 1008.46 1008.41 1008.42 1008.33 1008.31 1008.83 1009.43 1009.85 1010.35 1010.42 1010.67 1011.23 1011.80 1012.09 1012.38 1012.52 1012.25 1011.32 1010.90 1011.80 1012.53 1013.27 1013.80 1014.31
1016.66 1016.12 1015.61 1015.13 1014.68 1014.26 1013.88 1013.53 1013.26 1012.96 1012.72 1012.60 1012.49 1012.42 1011.30 1008.13 1006.93 1007.30 1007.74 1007.91 1007.93 1008.10 1008.23 1007.97 1007.93 1008.33 1008.36 1009.39 1009.78 1010.53 1010.78 1011.18 1011.44 1011.69 1012.05 1012.50 1012.96 1012.26 1011.53 1011.32 1011.76 1012.54 1013.13 1013.69 1013.93
1016.48 1015.92 1015.40 1014.86 1014.31 1013.77 1013.38 1013.04 1012.74 1012.49 1012.36 1012.33 1012.27 1012.13 1009.88 1007.02 1007.01 1007.55 1007.75 1007.79 1007.79 1007.87 1007.79 1007.55 1007.80 1008.37 1008.50 1009.34 1010.07 1010.41 1011.00 1011.38 1011.39 1011.53 1011.59 1012.34 1012.35 1011.73 1011.63 1011.62 1011.85 1012.64 1013.30 1013.48 1013.88
1016.29 1015.68 1015.09 1014.51 1013.97 1013.31 1012.77 1012.34 1012.01 1011.93 1012.08 1012.10 1012.20 1011.46 1008.66 1006.68 1006.96 1006.62 1006.96 1007.25 1007.49 1007.69 1007.64 1007.45 1007.75 1008.52 1008.97 1009.63 1010.73 1010.98 1011.02 1010.89 1011.14 1011.34 1011.47 1012.10 1012.12 1011.57 1011.74 1011.65 1011.82 1012.39 1013.09 1013.72 1013.95
1016.11 1015.44 1014.76 1014.15 1013.58 1012.97 1012.37 1011.64 1011.61 1011.79 1012.05 1011.89 1011.43 1010.93 1008.06 1006.70 1006.14 1006.15 1006.34 1006.65 1007.22 1007.45 1007.70 1007.71 1008.53 1009.07 1009.70 1010.05 1010.38 1010.47 1010.75 1010.70 1010.66 1011.03 1011.42 1011.87 1011.96 1011.78 1011.68 1011.70 1012.01 1012.29 1012.84 1013.21 1013.64
1015.89 1015.21 1014.48 1013.74 1013.19 1012.79 1012.20 1011.86 1011.93 1011.54 1011.13 1010.01 1009.17 1008.48 1007.11 1006.02 1005.61 1005.89 1005.97 1006.59 1006.97 1007.59 1008.26 1008.64 1009.39 1009.40 1008.92 1009.40 1009.36 1009.62 1010.09 1010.33 1010.18 1010.46 1010.95 1011.25 1011.66 1011.95 1011.74 1012.05 1012.03 1012.33 1012.79 1013.04 1013.44
1015.67 1015.10 1014.33 1013.44 1012.78 1012.36 1012.51 1011.73 1010.68 1010.67 1009.85 1008.14 1007.75 1007.43 1006.46 1005.92 1006.01 1005.75 1005.85 1006.59 1007.16 1007.95 1008.52 1009.31 1009.30 1008.47 1008.88 1009.09 1009.09 1009.36 1009.51 1009.85 1009.83 1010.36 1010.96 1011.24 1011.37 1011.70 1011.87 1011.99 1012.06 1012.16 1012.66 1012.77 1013.16
1015.51 1014.95 1014.25 1013.16 1012.59 1012.38 1012.10 1011.01 1009.93 1009.92 1009.82 1007.32 1006.57 1006.06 1005.51 1005.88 1005.86 1005.58 1006.00 1006.41 1007.18 1007.94 1008.48 1008.88 1008.08 1007.72 1008.12 1008.08 1008.50 1008.60 1009.00 1009.30 1009.42 1009.97 1010.79 1011.27 1011.58 1011.71 1011.92 1012.20 1012.36 1012.37 1012.29 1012.36 1012.65
1015.31 1014.82 1014.32 1013.22 1012.62 1012.50 1011.25 1009.92 1009.61 1009.55 1009.36 1007.26 1005.83 1004.68 1004.91 1005.25 1005.53 1005.01 1005.39 1006.17 1006.93 1007.51 1008.28 1008.37 1007.43 1007.37 1007.66 1007.76 1008.05 1008.23 1007.73 1008.41 1008.68 1009.87 1011.12 1011.20 1011.90 1011.68 1012.01 1012.10 1012.34 1012.30 1012.38 1012.40 1012.69
1015.11 1014.72 1014.41 1014.24 1013.78 1012.54 1010.16 1009.60 1009.31 1009.39 1008.87 1006.20 1004.99 1003.78 1004.34 1005.10 1005.03 1005.08 1005.24 1005.89 1006.52 1006.98 1007.67 1007.41 1006.76 1006.60 1006.72 1006.45 1006.89 1007.12 1007.31 1007.94 1008.73 1010.24 1011.26 1011.49 1012.31 1012.04 1012.45 1012.95 1012.58 1012.22 1012.20 1012.29 1012.20
1014.73 1014.47 1014.34 1014.11 1013.86 1011.00 1010.08 1009.67 1009.33 1009.89 1007.86 1005.54 1004.47 1004.33 1004.94 1005.02 1005.04 1005.01 1005.40 1005.77 1005.95 1006.63 1006.97 1006.63 1005.67 1005.60 1005.41 1005.37 1005.88 1006.23 1007.98 1009.24 1010.32 1011.39 1012.42 1012.08 1012.63 1012.98 1013.15 1013.24 1012.66 1012.15 1011.90 1011.77 1011.90
1014.03 1013.51 1014.05 1013.34 1011.62 1010.18 1010.16 1010.15 1010.47 1009.40 1006.94 1005.71 1004.96 1004.82 1005.05 1005.35 1005.32 1005.36 1005.73 1005.95 1006.49 1007.01 1007.19 1006.36 1005.57 1005.02 1004.83 1005.52 1006.21 1007.15 1008.85 1010.68 1012.09 1012.98 1013.02 1012.45 1012.87 1013.36 1013.22 1013.02 1012.80 1011.84 1011.29 1011.52 1011.47
1013.28 1012.28 1011.78 1011.28 1010.35 1010.36 1010.68 1010.88 1010.58 1008.34 1006.97 1005.66 1005.05 1005.16 1005.41 1005.34 1005.38 1005.67 1006.05 1006.48 1006.39 1006.83 1007.67 1007.17 1006.15 1005.07 1004.72 1005.35 1006.29 1007.53 1008.88 1010.51 1012.20 1013.63 1013.32 1012.90 1013.15 1013.04 1013.20 1013.13 1012.72 1012.07 1011.40 1011.38 1011.58
1012.66 1011.72 1011.47 1009.58 1010.05 1010.43 1011.03 1011.21 1009.64 1008.22 1006.90 1006.12 1005.34 1005.36 1005.52 1005.21 1005.32 1005.61 1006.06 1006.11 1005.85 1006.24 1007.05 1007.14 1006.15 1005.01 1004.96 1005.19 1006.05 1007.65 1008.85 1009.94 1012.05 1013.70 1013.89 1013.72 1013.38 1013.42 1013.18 1013.14 1012.84 1012.37 1012.10 1011.77 1011.60
1013.45 1012.39 1010.56 1009.00 1009.55 1009.94 1010.85 1010.61 1009.35 1007.81 1006.76 1006.33 1006.05 1005.65 1005.60 1005.01 1005.26 1005.53 1005.58 1004.83 1004.95 1005.09 1005.47 1006.36 1006.69 1006.01 1005.69 1005.58 1006.48 1007.10 1008.82 1010.54 1012.26 1014.21 1014.78 1014.30 1013.71 1013.09 1013.01 1013.16 1012.98 1012.68 1012.44 1011.89 1011.33
1013.52 1012.41 1009.65 1009.14 1009.45 1010.16 1010.44 1009.78 1008.61 1007.37 1006.70 1006.62 1006.47 1006.22 1005.34 1004.80 1004.75 1004.88 1004.55 1004.13 1004.16 1004.72 1005.35 1006.42 1006.91 1007.25 1006.84 1007.08 1007.42 1008.13 1009.35 1011.30 1013.04 1014.30 1015.01 1014.92 1014.03 1012.33 1012.71 1013.10 1013.21 1012.87 1012.56 1012.26 1011.80
1014.69 1013.19 1009.87 1009.77 1010.40 1010.86 1010.40 1009.09 1008.20 1007.33 1006.87 1006.62 1006.22 1006.32 1005.56 1004.86 1004.36 1004.21 1003.91 1003.22 1003.34 1004.06 1005.35 1006.33 1007.79 1008.40 1008.15 1007.68 1007.79 1008.25 1009.33 1010.81 1012.87 1014.63 1014.99 1014.77 1013.58 1012.71 1012.98 1013.30 1013.29 1013.05 1012.53 1012.28 1011.65
1016.00 1014.23 1010.27 1009.94 1011.06 1011.30 1010.27 1009.04 1007.98 1007.22 1006.85 1006.52 1006.04 1005.80 1005.56 1005.50 1004.60 1003.88 1003.47 1003.04 1003.09 1004.02 1004.92 1006.15 1008.16 1009.05 1008.91 1008.70 1008.12 1008.36 1009.23 1010.62 1011.95 1013.35 1014.45 1014.70 1013.61 1013.02 1013.16 1013.27 1012.95 1012.74 1012.45 1011.95 1011.62
1016.33 1015.23 1012.67 1011.71 1012.01 1011.81 1011.34 1009.70 1008.19 1006.85 1006.48 1006.09 1005.64 1005.49 1005.29 1005.17 1004.26 1003.78 1003.48 1003.29 1003.54 1003.91 1004.74 1005.52 1008.29 1008.96 1008.95 1008.54 1008.35 1008.56 1009.15 1010.30 1011.38 1013.02 1013.97 1013.66 1013.05 1012.97 1012.96 1013.01 1012.75 1012.43 1011.99 1011.73 1011.74
1016.60 1016.08 1015.21 1014.19 1013.29 1013.01 1012.01 1010.42 1008.91 1007.85 1006.85 1006.30 1005.59 1005.34 1005.45 1005.47 1004.39 1003.88 1003.59 1003.66 1003.96 1004.54 1005.19 1006.20 1008.23 1008.73 1008.61 1008.24 1008.22 1008.37 1008.77 1009.56 1010.62 1011.42 1012.22 1012.01 1012.11 1011.62 1012.05 1012.49 1012.41 1012.34 1011.97 1011.84 1011.84
1016.72 1016.42 1015.61 1015.10 1014.16 1013.41 1012.20 1010.74 1009.82 1008.71 1007.68 1006.87 1006.63 1005.76 1005.33 1004.93 1003.90 1003.61 1003.52 1003.86 1004.26 1005.12 1005.97 1007.06 1008.61 1009.05 1009.01 1008.28 1007.99 1008.28 1008.51 1008.96 1009.76 1010.65 1011.13 1011.40 1011.67 1011.35 1011.54 1011.99 1012.38 1012.37 1012.31 1011.87 1012.17
1016.81 1016.43 1016.09 1015.26 1014.52 1013.72 1012.41 1011.68 1010.50 1009.62 1007.92 1006.92 1006.43 1006.04 1004.62 1003.50 1003.02 1002.78 1002.50 1003.18 1003.92 1004.93 1006.52 1007.63 1008.64 1009.60 1009.82 1009.04 1008.54 1008.55 1008.10 1008.45 1009.23 1009.79 1010.38 1011.09 1010.77 1011.32 1011.95 1012.07 1012.10 1011.87 1012.06 1012.05 1012.43
Thickness
5744 5746 5748 5749 5751 5752 5753 5754 5755 5756 5757 5759 5761 5763 5765 5767 5771 5772 5775 5795 5796 5797 5795 5793 5795 5794 5789 5773 5772 5768 5739 5724 5723 5720 5727 5748 5751 5772 5782 5771 5770 5772 5762 5758 5750
5745 5747 5749 5752 5753 5755 5756 5756 5757 5758 5759 5761 5763 5764 5765 5765 5767 5772 5802 5802 5800 5797 5790 5785 5780 5786 5770 5770 5767 5757 5736 5739 5746 5746 5739 5747 5747 5753 5762 5764 5758 5760 5758 5752 5750
5746 5749 5751 5754 5756 5757 5758 5759 5761 5761 5762 5764 5764 5765 5765 5765 5768 5787 5808 5803 5800 5797 5793 5790 5785 5781 5766 5766 5764 5760 5746 5757 5753 5752 5749 5744 5746 5750 5764 5755 5760 5755 5750 5747 5747
5748 5751 5754 5755 5758 5759 5761 5762 5763 5764 5764 5765 5766 5766 5766 5765 5757 5799 5808 5802 5798 5796 5790 5782 5774 5765 5761 5756 5768 5756 5763 5761 5757 5755 5747 5739 5744 5742 5759 5767 5772 5769 5765 5754 5744
5749 5752 5755 5757 5759 5761 5762 5763 5764 5765 5766 5766 5766 5766 5767 5769 5777 5803 5802 5799 5795 5790 5783 5775 5770 5772 5761 5762 5763 5754 5758 5767 5762 5752 5748 5749 5741 5746 5760 5772 5770 5764 5757 5751 5746
5750 5753 5756 5759 5762 5763 5765 5765 5766 5767 5767 5767 5766 5764 5765 5765 5805 5801 5798 5793 5790 5785 5781 5779 5777 5782 5772 5768 5763 5763 5762 5762 5759 5752 5751 5743 5743 5746 5759 5773 5761 5757 5753 5752 5749
5751 5754 5758 5761 5763 5766 5767 5768 5769 5770 5769 5767 5765 5764 5763 5775 5802 5798 5794 5790 5790 5786 5777 5786 5787 5777 5782 5762 5772 5761 5750 5756 5756 5754 5748 5746 5733 5740 5758 5762 5758 5754 5754 5753 5754
5752 5756 5759 5762 5766 5769 5771 5772 5772 5772 5770 5767 5764 5762 5764 5800 5799 5791 5789 5786 5789 5788 5787 5791 5788 5777 5775 5773 5763 5758 5752 5736 5751 5756 5758 5747 5728 5749 5759 5758 5754 5753 5751 5751 5750
5752 5756 5760 5764 5768 5772 5775 5776 5777 5774 5770 5766 5761 5761 5763 5800 5786 5795 5792 5782 5783 5783 5785 5790 5783 5768 5769 5749 5733 5741 5732 5738 5744 5755 5755 5746 5737 5755 5756 5758 5752 5751 5751 5745 5748
5751 5756 5761 5765 5769 5772 5776 5780 5778 5774 5768 5765 5764 5755 5775 5775 5789 5793 5793 5788 5777 5775 5771 5771 5753 5743 5738 5731 5709 5727 5731 5741 5739 5751 5751 5743 5740 5751 5757 5756 5755 5756 5752 5749 5749
5750 5755 5760 5765 5769 5771 5775 5777 5773 5769 5769 5773 5773 5770 5775 5790 5796 5785 5790 5778 5773 5762 5740 5750 5732 5728 5744 5748 5754 5753 5744 5739 5750 5756 5748 5745 5746 5749 5755 5753 5753 5753 5751 5750 5751
5749 5752 5758 5764 5769 5772 5769 5774 5775 5771 5756 5781 5780 5774 5783 5787 5767 5776 5786 5761 5754 5735 5743 5728 5720 5748 5750 5747 5747 5744 5745 5741 5753 5755 5749 5745 5745 5753 5750 5752 5752 5752 5751 5754 5754
5746 5750 5755 5763 5767 5769 5770 5774 5782 5778 5751 5772 5781 5778 5779 5779 5763 5763 5772 5761 5747 5736 5733 5721 5743 5757 5751 5750 5745 5742 5740 5741 5751 5752 5751 5744 5735 5742 5749 5752 5752 5753 5758 5760 5757
5744 5747 5750 5759 5764 5763 5769 5781 5781 5778 5726 5752 5771 5781 5782 5777 5759 5782 5778 5764 5749 5735 5731 5730 5753 5751 5745 5744 5742 5731 5764 5762 5764 5741 5716 5746 5712 5740 5742 5746 5746 5750 5750 5753 5753
5741 5743 5744 5746 5748 5757 5776 5779 5781 5771 5703 5770 5774 5804 5784 5765 5769 5769 5781 5764 5743 5744 5741 5734 5753 5750 5744 5753 5756 5747 5771 5764 5760 5735 5731 5733 5718 5737 5739 5730 5738 5749 5751 5752 5759
5740 5740 5740 5742 5744 5766 5772 5773 5770 5719 5701 5761 5777 5768 5760 5764 5764 5770 5765 5771 5766 5750 5747 5748 5773 5767 5765 5777 5774 5776 5753 5738 5728 5718 5697 5718 5715 5711 5721 5727 5739 5749 5755 5759 5759
5740 5744 5736 5741 5755 5767 5766 5757 5711 5695 5759 5756 5757 5762 5756 5747 5753 5755 5748 5743 5730 5721 5726 5744 5758 5773 5781 5762 5764 5748 5724 5686 5690 5685 5689 5716 5710 5711 5727 5735 5737 5746 5756 5758 5762
5737 5746 5747 5749 5761 5759 5752 5726 5700 5730 5738 5766 5766 5757 5743 5751 5748 5747 5740 5731 5747 5739 5715 5718 5715 5759 5777 5760 5742 5741 5726 5691 5682 5673 5692 5715 5702 5709 5728 5733 5740 5745 5754 5755 5756
5732 5739 5740 5756 5753 5749 5731 5698 5707 5723 5749 5748 5754 5741 5739 5752 5751 5748 5734 5733 5750 5746 5724 5711 5730 5769 5771 5769 5760 5739 5721 5735 5690 5688 5687 5692 5711 5719 5725 5726 5733 5740 5742 5746 5748
5716 5722 5737 5752 5747 5740 5715 5704 5717 5737 5748 5745 5729 5743 5729 5742 5741 5737 5733 5759 5757 5762 5762 5745 5727 5751 5761 5769 5759 5753 5741 5712 5694 5684 5684 5687 5699 5702 5721 5721 5727 5731 5733 5743 5749
5709 5713 5737 5741 5739 5721 5704 5711 5723 5740 5746 5733 5729 5726 5740 5746 5745 5735 5744 5764 5771 5764 5760 5743 5732 5738 5748 5737 5734 5733 5721 5701 5693 5682 5668 5669 5683 5722 5720 5719 5719 5725 5730 5733 5740
5686 5692 5726 5727 5702 5692 5698 5716 5729 5730 5737 5733 5736 5725 5735 5743 5745 5743 5743 5761 5777 5769 5752 5750 5715 5707 5727 5743 5747 5740 5730 5711 5688 5684 5672 5671 5682 5722 5715 5715 5717 5720 5727 5732 5738
5664 5668 5713 5715 5682 5682 5697 5713 5721 5720 5719 5725 5728 5737 5739 5729 5735 5747 5753 5773 5774 5765 5748 5749 5709 5690 5704 5719 5735 5735 5731 5710 5695 5685 5673 5670 5681 5711 5711 5712 5716 5717 5723 5729 5734
5657 5660 5676 5683 5678 5681 5679 5693 5706 5726 5719 5726 5733 5737 5733 5727 5740 5740 5749 5764 5770 5766 5760 5752 5708 5706 5689 5709 5719 5719 5725 5715 5704 5680 5672 5677 5698 5700 5703 5707 5714 5717 5722 5724 5725
5643 5649 5649 5644 5657 5658 5668 5682 5692 5692 5711 5715 5722 5728 5721 5711 5727 5734 5746 5751 5756 5755 5752 5741 5713 5716 5718 5719 5722 5722 5720 5717 5711 5700 5693 5701 5697 5713 5707 5707 5711 5713 5717 5720 5720
5633 5633 5634 5632 5637 5647 5657 5671 5674 5683 5697 5696 5700 5714 5717 5713 5728 5727 5739 5738 5740 5747 5739 5726 5705 5710 5715 5721 5718 5719 5722 5721 5715 5703 5707 5704 5700 5715 5712 5711 5708 5708 5709 5715 5715
5613 5617 5619 5622 5625 5631 5641 5650 5659 5668 5687 5701 5702 5701 5712 5731 5747 5751 5757 5750 5748 5734 5722 5717 5704 5694 5693 5705 5711 5697 5715 5716 5711 5712 5707 5692 5707 5705 5703 5706 5707 5712 5711 5708 5703